Tracking 25656 objects as of 21-May-2022
HD Live streaming from Space Station
objects crossing your sky now

COSMOS 1275 DEB

Track COSMOS 1275 DEB now!
10-day predictions


NORAD ID: 13800
Int'l Code: 1981-053GX
Perigee: 913.9 km
Apogee: 1,156.8 km
Inclination: 83.2 °
Period: 105.7 minutes
Semi major axis: 7406 km
RCS: 0.062 m2 (small)
Launch date: June 4, 1981
Source: Commonwealth of Independent States (former USSR) (CIS)
Launch site: PLESETSK MISSILE AND SPACE COMPLEX (PKMTR)

Note: This is SATELLITE DEBRIS
aabbcc
Your satellite tracking list
Your tracking list is empty




NASA's NSSDC Master Catalog

Two Line Element Set (TLE):
1 13800U 81053GU  22141.00569937  .00001853  00000-0  21777-2 0  9991
2 13800  83.2287 125.0256 0163969 151.1465 272.3209 13.62072209951093
Source of the keplerian elements: AFSPC